Weather History for CYQZ - October, 2012

Change the Weather History Date:

Tuesday, October 2, 2012

  Actual Average Record
Temperature  
Mean Temperature 40 °F -  
Max Temperature 48 °F 55 °F 71 °F (2008)
Min Temperature 32 °F 33 °F 26 °F (2014)
Degree Days  
Heating Degree Days 25    
Moisture  
Dew Point 31 °F    
Average Humidity 69    
Maximum Humidity 93    
Minimum Humidity 40    
Precipitation  
Precipitation 0.00 in - - ()
Sea Level Pressure  
Sea Level Pressure 30.33 in    
Wind  
Wind Speed 9 mph ()    
Max Wind Speed 17 mph    
Max Gust Speed 33 mph    
Visibility 9.0 miles    
Events Rain    
Averages and records for this station are not official NWS values.
T = Trace of Precipitation, MM = Missing Value Source: Averaged Metar Reports

Daily Weather History Graph

Daily Weather History Graph

Search for Another Location

Airport or City:

Trip Planner

Search our weather history database for the weather conditions in past years. The results will help you decide how hot, cold, wet, or windy it might be!

Date:

Astronomy

Oct. 02, 2012 Rise Set
Actual Time 7:14 AM PDT 6:43 PM PDT
Civil Twilight 6:39 AM PDT 7:17 PM PDT
Nautical Twilight 5:59 AM PDT 7:57 PM PDT
Astronomical Twilight 5:18 AM PDT 8:38 PM PDT
Moon 7:29 PM PDT (10/2) 10:14 AM PDT (10/2)
Length of Visible Light 12h 37m
Length of Day
11h 28m
Waning Gibbous, 93% of the Moon is Illuminated
Oct 2
Waning Gibbous
Oct 8
Last Quarter
Oct 15
New
Oct 21
First Quarter
Oct 29
Full

Hourly Weather History & Observations

Time (PDT) Temp. Windchill Dew Point Humidity Pressure Visibility Wind Dir Wind Speed Gust Speed Precip Events Conditions
12:00 AM 48.2 °F - 24.8 °F 40% 30.09 in 9.0 mi NNW 16.1 mph 23.0 mph N/A   Clear
1:00 AM 46.4 °F 44.3 °F 24.8 °F 43% 30.12 in 9.0 mi Variable 4.6 mph - N/A   Clear
2:00 AM 44.6 °F 40.7 °F 24.8 °F 46% 30.14 in 9.0 mi NW 6.9 mph - N/A   Clear
3:00 AM 42.8 °F 38.0 °F 24.8 °F 49% 30.14 in 9.0 mi NNW 8.1 mph - N/A   Clear
4:00 AM 37.4 °F 33.8 °F 26.6 °F 65% 30.17 in 9.0 mi North 4.6 mph - N/A   Scattered Clouds
5:00 AM 41.0 °F 39.0 °F 24.8 °F 53% 30.17 in 9.0 mi ENE 3.5 mph - N/A   Overcast
6:00 AM 42.8 °F 40.1 °F 24.8 °F 49% 30.19 in 9.0 mi Variable 4.6 mph - N/A   Overcast
6:37 AM 42.8 °F 34.8 °F 23.0 °F 46% 30.20 in 9.0 mi NW 17.3 mph 25.3 mph N/A   Overcast
7:00 AM 42.8 °F 35.4 °F 24.8 °F 49% 30.21 in 9.0 mi NW 15.0 mph 21.9 mph N/A   Overcast
7:45 AM 41.0 °F 32.5 °F 28.4 °F 61% 30.24 in 9.0 mi NW 17.3 mph 33.4 mph N/A Rain Light Rain
7:57 AM 41.0 °F 33.5 °F 28.4 °F 61% 30.25 in 9.0 mi NW 13.8 mph 23.0 mph N/A   Overcast
8:00 AM 41.0 °F 33.5 °F 28.4 °F 61% 30.25 in 9.0 mi NW 13.8 mph 23.0 mph N/A   Overcast
8:11 AM 39.2 °F 31.2 °F 28.4 °F 65% 30.25 in 9.0 mi NNW 13.8 mph - N/A Rain Light Rain
8:21 AM 39.2 °F 33.0 °F 28.4 °F 65% 30.25 in 9.0 mi NW 9.2 mph - N/A   Overcast
8:36 AM 39.2 °F - 30.2 °F 70% 30.26 in 9.0 mi Variable 2.3 mph - N/A Rain Light Rain
8:51 AM 41.0 °F 35.2 °F 28.4 °F 61% 30.27 in 9.0 mi NNW 9.2 mph - N/A   Overcast
8:56 AM 41.0 °F 38.0 °F 28.4 °F 61% 30.27 in 9.0 mi North 4.6 mph - N/A Rain Light Rain
9:00 AM 41.0 °F 38.0 °F 28.4 °F 61% 30.27 in 9.0 mi NNW 4.6 mph - N/A Rain Light Rain
9:09 AM 39.2 °F 30.8 °F 30.2 °F 70% 30.28 in 9.0 mi NNW 15.0 mph - N/A   Overcast
9:11 AM 39.2 °F 30.5 °F 30.2 °F 70% 30.28 in 9.0 mi NNW 16.1 mph - N/A Rain Light Rain
9:32 AM 41.0 °F 35.8 °F 30.2 °F 65% 30.28 in 9.0 mi North 8.1 mph - N/A   Overcast
10:00 AM 41.0 °F 37.1 °F 30.2 °F 65% 30.29 in 9.0 mi NNE 5.8 mph - N/A   Overcast
10:06 AM 41.0 °F 35.8 °F 30.2 °F 65% 30.30 in 9.0 mi North 8.1 mph - N/A Rain Light Rain
11:00 AM 39.2 °F 33.6 °F 33.8 °F 81% 30.33 in 9.0 mi North 8.1 mph - N/A Rain Light Rain
11:11 AM 39.2 °F 35.0 °F 33.8 °F 81% 30.34 in 9.0 mi NW 5.8 mph - N/A Rain Light Rain
12:00 PM 39.2 °F 32.5 °F 35.6 °F 87% 30.36 in 9.0 mi NNW 10.4 mph - N/A Rain Light Rain
12:07 PM 39.2 °F 32.5 °F 35.6 °F 87% 30.36 in 9.0 mi North 10.4 mph - N/A   Overcast
12:20 PM 41.0 °F 33.9 °F 35.6 °F 81% 30.36 in 9.0 mi NNW 12.7 mph 19.6 mph N/A   Overcast
12:23 PM 41.0 °F 34.7 °F 35.6 °F 81% 30.36 in 9.0 mi NNW 10.4 mph 17.3 mph N/A   Overcast
1:00 PM 41.0 °F 33.5 °F 35.6 °F 81% 30.38 in 9.0 mi NW 13.8 mph 20.7 mph N/A   Overcast
1:06 PM 41.0 °F 32.5 °F 35.6 °F 81% 30.38 in 9.0 mi NW 17.3 mph - N/A Rain Light Rain
1:38 PM 41.0 °F 33.5 °F 35.6 °F 81% 30.40 in 9.0 mi NNW 13.8 mph - N/A   Overcast
1:56 PM 42.8 °F 35.8 °F 35.6 °F 76% 30.41 in 9.0 mi NW 13.8 mph - N/A   Overcast
2:00 PM 42.8 °F 36.2 °F 35.6 °F 76% 30.41 in 9.0 mi NNW 12.7 mph - N/A   Overcast
2:01 PM 42.8 °F 35.8 °F 35.6 °F 76% 30.41 in 9.0 mi NNW 13.8 mph - N/A   Overcast
2:03 PM 42.8 °F 36.6 °F 35.6 °F 76% 30.41 in 9.0 mi NNW 11.5 mph 17.3 mph N/A   Overcast
2:09 PM 42.8 °F 36.6 °F 35.6 °F 76% 30.41 in 9.0 mi NNW 11.5 mph - N/A   Overcast
2:10 PM 42.8 °F 37.0 °F 35.6 °F 76% 30.41 in 9.0 mi NW 10.4 mph - N/A   Overcast
2:15 PM 42.8 °F 36.2 °F 35.6 °F 76% 30.41 in 9.0 mi NW 12.7 mph - N/A   Overcast
3:00 PM 44.6 °F 39.2 °F 35.6 °F 71% 30.42 in 9.0 mi NNW 10.4 mph - N/A   Mostly Cloudy
4:00 PM 46.4 °F 41.1 °F 33.8 °F 62% 30.45 in 9.0 mi NNW 11.5 mph 19.6 mph N/A   Overcast
5:00 PM 48.2 °F - 33.8 °F 58% 30.47 in 9.0 mi NNW 12.7 mph 19.6 mph N/A   Partly Cloudy
6:00 PM 44.6 °F 40.7 °F 35.6 °F 71% 30.48 in 9.0 mi NW 6.9 mph - N/A   Clear
7:00 PM 37.4 °F 32.8 °F 33.8 °F 87% 30.51 in 9.0 mi North 5.8 mph - N/A   Partly Cloudy
8:00 PM 33.8 °F 30.8 °F 32.0 °F 93% 30.53 in 9.0 mi NNW 3.5 mph - N/A   Clear
9:00 PM 32.0 °F 24.8 °F 30.2 °F 93% 30.55 in 9.0 mi North 8.1 mph - N/A   Clear
10:00 PM 33.8 °F - 32.0 °F 93% 30.57 in 9.0 mi Variable 2.3 mph - N/A   Clear
11:00 PM 33.8 °F - 32.0 °F 93% 30.58 in 9.0 mi Variable 2.3 mph - N/A   Clear